TimeEDT,TemperatureF,Dew PointF,Humidity,Sea Level PressureIn,VisibilityMPH,Wind Direction,Wind SpeedMPH,Gust SpeedMPH,PrecipitationIn,Events,Conditions,WindDirDegrees,DateUTC
12:15 AM,69.8,59.0,68,30.12,10.0,East,3.5,-,N/A,,Clear,100,2013-04-03 04:15:00
12:35 AM,68.0,59.0,73,30.12,10.0,East,3.5,-,N/A,,Clear,100,2013-04-03 04:35:00
12:55 AM,68.0,59.0,73,30.11,10.0,ESE,3.5,-,N/A,,Clear,110,2013-04-03 04:55:00
1:15 AM,68.0,59.0,73,30.12,10.0,Calm,Calm,-,N/A,,Clear,0,2013-04-03 05:15:00
1:35 AM,66.2,59.0,78,30.11,10.0,East,3.5,-,N/A,,Clear,80,2013-04-03 05:35:00
1:55 AM,64.4,59.0,83,30.10,10.0,East,3.5,-,N/A,,Clear,80,2013-04-03 05:55:00
2:15 AM,66.2,60.8,83,30.09,10.0,East,3.5,-,N/A,,Clear,100,2013-04-03 06:15:00
2:35 AM,66.2,60.8,83,30.08,10.0,East,3.5,-,N/A,,Clear,90,2013-04-03 06:35:00
2:55 AM,66.2,60.8,83,30.07,10.0,East,4.6,-,N/A,,Clear,80,2013-04-03 06:55:00
3:15 AM,66.2,60.8,83,30.07,10.0,East,3.5,-,N/A,,Scattered Clouds,80,2013-04-03 07:15:00
3:35 AM,66.2,60.8,83,30.06,10.0,East,4.6,-,N/A,,Scattered Clouds,80,2013-04-03 07:35:00
3:55 AM,66.2,60.8,83,30.04,10.0,East,5.8,-,N/A,,Clear,90,2013-04-03 07:55:00
4:15 AM,66.2,60.8,83,30.04,10.0,East,4.6,-,N/A,,Clear,80,2013-04-03 08:15:00
4:35 AM,66.2,62.6,88,30.04,10.0,East,5.8,-,N/A,,Clear,100,2013-04-03 08:35:00
4:55 AM,66.2,62.6,88,30.05,10.0,ESE,4.6,-,N/A,,Clear,110,2013-04-03 08:55:00
5:15 AM,66.2,66.2,100,30.04,10.0,East,4.6,-,N/A,,Clear,100,2013-04-03 09:15:00
5:35 AM,66.2,-9999,N/A,30.05,10.0,ESE,3.5,-,N/A,,Clear,110,2013-04-03 09:35:00
5:55 AM,64.4,-9999,N/A,30.05,10.0,ESE,4.6,-,N/A,,Clear,110,2013-04-03 09:55:00
6:15 AM,66.2,-9999,N/A,30.05,10.0,ESE,6.9,-,N/A,,Clear,120,2013-04-03 10:15:00
6:35 AM,66.2,-9999,N/A,30.04,10.0,ESE,6.9,-,N/A,,Clear,110,2013-04-03 10:35:00
6:55 AM,66.2,-9999,N/A,30.05,10.0,ESE,6.9,-,N/A,,Clear,110,2013-04-03 10:55:00
7:15 AM,66.2,-9999,N/A,30.05,10.0,ESE,6.9,-,N/A,,Clear,120,2013-04-03 11:15:00
7:35 AM,66.2,-9999,N/A,30.06,7.0,ESE,8.1,-,N/A,,Clear,120,2013-04-03 11:35:00
7:55 AM,68.0,-9999,N/A,30.06,7.0,ESE,5.8,-,N/A,,Clear,120,2013-04-03 11:55:00
8:15 AM,68.0,-9999,N/A,30.06,10.0,ESE,6.9,-,N/A,,Clear,120,2013-04-03 12:15:00
8:35 AM,69.8,-9999,N/A,30.07,10.0,SE,8.1,-,N/A,,Clear,130,2013-04-03 12:35:00
8:55 AM,71.6,68.0,88,30.07,10.0,SE,12.7,-,N/A,,Clear,140,2013-04-03 12:55:00
9:15 AM,73.4,66.2,78,30.07,10.0,SE,10.4,-,N/A,,Clear,140,2013-04-03 13:15:00
9:35 AM,75.2,66.2,73,30.08,10.0,SSE,11.5,16.1,N/A,,Scattered Clouds,160,2013-04-03 13:35:00
9:55 AM,75.2,66.2,73,30.07,10.0,SSE,10.4,19.6,N/A,,Scattered Clouds,150,2013-04-03 13:55:00
10:15 AM,77.0,66.2,69,30.07,10.0,SE,15.0,21.9,N/A,,Scattered Clouds,140,2013-04-03 14:15:00
10:35 AM,78.8,64.4,61,30.07,10.0,SE,16.1,20.7,N/A,,Clear,140,2013-04-03 14:35:00
10:55 AM,78.8,64.4,61,30.07,10.0,SE,12.7,-,N/A,,Clear,130,2013-04-03 14:55:00
11:15 AM,80.6,64.4,58,30.07,10.0,SSE,10.4,-,N/A,,Scattered Clouds,150,2013-04-03 15:15:00
11:35 AM,80.6,64.4,58,30.06,10.0,SSE,11.5,-,N/A,,Mostly Cloudy,150,2013-04-03 15:35:00
11:55 AM,82.4,64.4,54,30.04,10.0,ESE,12.7,19.6,N/A,,Mostly Cloudy,120,2013-04-03 15:55:00
12:15 PM,82.4,64.4,54,30.04,10.0,South,12.7,19.6,N/A,,Mostly Cloudy,170,2013-04-03 16:15:00
12:35 PM,82.4,64.4,54,30.04,10.0,SSE,10.4,-,N/A,,Mostly Cloudy,150,2013-04-03 16:35:00
12:55 PM,84.2,64.4,51,30.04,10.0,SE,10.4,17.3,N/A,,Mostly Cloudy,130,2013-04-03 16:55:00
1:15 PM,84.2,62.6,48,30.03,10.0,ESE,10.4,-,N/A,,Mostly Cloudy,110,2013-04-03 17:15:00
1:35 PM,86.0,62.6,45,30.03,10.0,SE,10.4,-,N/A,,Scattered Clouds,130,2013-04-03 17:35:00
1:55 PM,86.0,60.8,43,30.03,10.0,SSE,4.6,-,N/A,,Scattered Clouds,160,2013-04-03 17:55:00
2:15 PM,87.8,60.8,40,30.02,10.0,SSE,13.8,19.6,N/A,,Scattered Clouds,150,2013-04-03 18:15:00
2:35 PM,86.0,60.8,43,30.03,10.0,SE,6.9,-,N/A,,Scattered Clouds,140,2013-04-03 18:35:00
2:55 PM,86.0,60.8,43,30.02,10.0,ESE,6.9,-,N/A,,Scattered Clouds,120,2013-04-03 18:55:00
3:15 PM,86.0,59.0,40,30.01,10.0,SE,6.9,-,N/A,,Mostly Cloudy,130,2013-04-03 19:15:00
3:35 PM,86.0,59.0,40,30.00,10.0,SE,5.8,-,N/A,,Mostly Cloudy,130,2013-04-03 19:35:00
3:55 PM,84.2,59.0,42,29.99,10.0,ESE,6.9,-,N/A,,Overcast,120,2013-04-03 19:55:00
4:15 PM,84.2,59.0,42,29.98,10.0,SSE,5.8,-,N/A,,Overcast,150,2013-04-03 20:15:00
4:35 PM,84.2,59.0,42,29.98,10.0,SE,6.9,-,N/A,,Overcast,140,2013-04-03 20:35:00
4:55 PM,82.4,62.6,51,29.99,10.0,WSW,6.9,-,N/A,,Overcast,240,2013-04-03 20:55:00
5:15 PM,82.4,64.4,54,29.99,10.0,WSW,6.9,-,N/A,,Scattered Clouds,250,2013-04-03 21:15:00
5:35 PM,80.6,62.6,54,29.99,10.0,West,11.5,-,N/A,,Clear,260,2013-04-03 21:35:00
5:55 PM,80.6,62.6,54,30.00,10.0,West,8.1,-,N/A,,Clear,280,2013-04-03 21:55:00
6:15 PM,78.8,62.6,57,29.99,10.0,West,6.9,-,N/A,,Clear,280,2013-04-03 22:15:00
6:35 PM,78.8,62.6,57,29.99,10.0,WNW,5.8,-,N/A,,Clear,290,2013-04-03 22:35:00
6:55 PM,78.8,64.4,61,29.99,10.0,Calm,Calm,-,N/A,,Clear,0,2013-04-03 22:55:00
7:15 PM,77.0,64.4,65,30.00,10.0,North,3.5,-,N/A,,Scattered Clouds,360,2013-04-03 23:15:00
7:35 PM,77.0,64.4,65,30.00,10.0,North,5.8,-,N/A,,Mostly Cloudy,10,2013-04-03 23:35:00
7:55 PM,75.2,64.4,69,30.02,10.0,North,5.8,-,N/A,,Scattered Clouds,10,2013-04-03 23:55:00
8:15 PM,75.2,64.4,69,30.04,10.0,NNE,4.6,-,N/A,,Scattered Clouds,30,2013-04-04 00:15:00
8:35 PM,73.4,64.4,73,30.03,10.0,North,3.5,-,N/A,,Scattered Clouds,10,2013-04-04 00:35:00
8:55 PM,73.4,62.6,69,30.03,10.0,NE,5.8,-,N/A,,Scattered Clouds,40,2013-04-04 00:55:00
9:15 PM,73.4,62.6,69,30.03,10.0,NE,4.6,-,N/A,,Mostly Cloudy,40,2013-04-04 01:15:00
9:35 PM,73.4,64.4,73,30.06,10.0,NNW,5.8,-,N/A,Rain,Light Rain,330,2013-04-04 01:35:00
9:55 PM,71.6,66.2,83,30.07,5.0,NNW,6.9,-,0.06,Rain,Rain,340,2013-04-04 01:55:00
10:15 PM,69.8,69.8,100,30.07,10.0,NNE,3.5,-,N/A,Rain,Light Rain,20,2013-04-04 02:15:00
10:35 PM,68.0,-9999,N/A,30.08,7.0,North,3.5,-,0.02,Rain,Light Rain,10,2013-04-04 02:35:00
10:55 PM,68.0,-9999,N/A,30.08,7.0,NNE,3.5,-,0.03,Rain,Light Rain,30,2013-04-04 02:55:00
11:15 PM,68.0,-9999,N/A,30.08,7.0,Calm,Calm,-,N/A,,Light Drizzle,0,2013-04-04 03:15:00
11:35 PM,69.8,-9999,N/A,30.04,5.0,SE,10.4,-,0.02,Rain,Light Rain,140,2013-04-04 03:35:00
11:55 PM,69.8,-9999,N/A,30.02,10.0,ESE,4.6,-,0.02,Rain,Light Rain,120,2013-04-04 03:55:00